Orbital Elements at Epoch 2459200.5 (2020-Dec-17.0) TDB
Reference: JPL 17 (heliocentric ecliptic J2000)
Element | Value | Uncertainty (1-sigma) | Units |
e | .03450701048128976 | 5.6536e-08 | |
a | 5.132231739651495 | 9.1232e-08 | au |
q | 4.955133765218933 | 3.0129e-07 | au |
i | 16.58724770562388 | 4.2233e-06 | deg |
node | 153.6532990949235 | 2.1636e-05 | deg |
peri | 80.18538421366831 | 7.3819e-05 | deg |
M | 20.39323353708568 | 6.8078e-05 | deg |
tp | 2458959.930034425584 (2020-Apr-20.43003443) | 0.00080652 | TDB |
period | 4246.760939077939 11.63 | 0.00011324 3.1e-07 | d yr |
n | .08477048865344504 | 2.2604e-09 | deg/d |
Q | 5.309329714084057 | 9.4381e-08 | au |
|
| | Orbit Determination Parameters
Additional Information
|